FW3274 Weather Reports


Display with metric or nautical units.
time (UTC)temp
F
wind
direction
speed
MPH
gust
MPH
rain 1hr
in
rain 24hr
in
rain mn
in
humidity
%
barometer
mb
20260505041530 59 71 0.0 0.0 0.00 0.00 0.00 85 1010.3
20260505040023 59 67 0.0 0.0 0.00 0.00 0.00 85 1010.2
20260505034522 59 62 0.0 0.0 0.00 0.00 0.00 85 1010.3
20260505033016 59 60 0.0 0.0 0.00 0.00 0.00 84 1010.4
20260505031528 59 51 0.0 0.0 0.00 0.00 0.00 82 1010.5
20260505030012 59 83 0.0 0.0 0.00 0.00 0.00 84 1010.6
20260505024511 59 61 0.0 0.0 0.00 0.00 0.00 85 1010.7
20260505023011 59 60 0.0 0.0 0.00 0.00 0.00 86 1010.8
20260505021509 59 90 0.0 0.0 0.00 0.00 0.00 85 1010.8
20260505020006 59 63 0.0 0.0 0.00 0.00 0.00 85 1010.9
20260505014505 59 96 0.0 0.0 0.00 0.00 0.00 83 1011.1
20260505013003 58 57 0.0 0.0 0.00 0.00 0.00 80 1011.2
20260505011501 58 76 0.0 0.0 0.00 0.00 0.00 78 1011.4
20260505010059 58 78 0.0 0.0 0.00 0.00 0.00 71 1011.5
20260505004556 58 72 0.0 0.0 0.00 0.00 0.00 70 1011.7
20260505003055 58 59 0.0 0.0 0.00 0.00 0.00 70 1011.8
20260505001553 58 84 0.0 0.0 0.00 0.00 0.00 69 1012.0
20260505000106 59 78 0.0 0.0 0.00 0.00 0.00 68 1012.1
20260504234550 59 77 0.0 0.0 0.00 0.00 0.00 69 1012.2
20260504233105 59 79 0.0 0.0 0.00 0.00 0.00 70 1012.3
20260504231548 59 63 0.0 0.0 0.00 0.00 0.00 69 1012.5
20260504230044 60 63 0.0 0.0 0.00 0.00 0.00 68 1012.6
20260504224543 60 65 0.0 0.0 0.00 0.00 0.00 68 1012.6
20260504223056 60 72 0.0 0.0 0.00 0.00 0.00 67 1012.7
20260504221539 61 71 0.0 0.0 0.00 0.00 0.00 67 1012.8
20260504220038 61 71 0.0 0.0 0.00 0.00 0.00 66 1012.8
20260504214537 61 73 0.0 0.0 0.00 0.00 0.00 65 1012.9
20260504213050 62 73 0.0 0.0 0.00 0.00 0.00 64 1013.0
20260504211537 62 72 0.0 0.0 0.00 0.00 0.00 63 1013.0
20260504210040 62 72 0.0 0.0 0.00 0.00 0.00 63 1013.0
20260504204544 62 72 0.0 0.0 0.00 0.00 0.00 62 1013.1
20260504203041 63 74 0.0 0.0 0.00 0.00 0.00 62 1013.0
20260504201535 64 81 0.0 0.0 0.00 0.00 0.00 61 1013.0
20260504200035 64 84 0.0 0.0 0.00 0.00 0.00 59 1013.0
20260504194536 65 82 0.0 0.0 0.00 0.00 0.00 55 1012.9
20260504193035 65 82 0.0 0.0 0.00 0.00 0.00 54 1012.8
20260504191534 66 82 0.0 0.0 0.00 0.00 0.00 53 1012.6
20260504190036 66 88 0.0 0.0 0.00 0.00 0.00 52 1012.5
20260504184533 67 88 0.0 0.0 0.00 0.00 0.00 51 1012.3
20260504183032 68 90 0.0 0.0 0.00 0.00 0.00 50 1012.3
20260504181541 69 92 0.0 0.0 0.00 0.00 0.00 50 1012.2
20260504180032 70 94 0.0 0.0 0.00 0.00 0.00 48 1012.0
20260504174531 70 101 0.0 0.0 0.00 0.00 0.00 48 1011.9
20260504173031 71 75 0.0 0.0 0.00 0.00 0.00 47 1011.8
20260504171531 72 111 0.0 1.0 0.00 0.00 0.00 46 1011.9
20260504100105 75 88 0.0 0.0 0.00 0.00 0.00 40 1014.2
20260504081548 70 59 0.0 0.0 0.00 0.00 0.00 42 1014.6